DELTA 1 DEB, 7057

Orbit data source: Space-Track

DELTA 1 DEB, 7057 is space debris in SSO originally from a launch on Tue, 06 Nov 1973 UTC launched from the Air Force Western Test Range (AFWTR). Debris objects in space refer to the collection of defunct objects orbiting the Earth. Examples of debris include non-operational satellites, rocket bodies, and fragments generated from explosions, collisions, or faulty payload assembly.

Loading next visibility...
Identifier
7057, 1973-086AZ
Orbit
SSO
Country
Flag of USUS
Related business
Manufacturer
Unknown
Mission
Spacecraft
Bus & Motor
Unknown
Mass
Unknown
Launch date (UTC)
1973-11-06 (52 years ago)
Launch vehicle
Unknown
Launch site
Air Force Western Test Range (AFWTR)
Object type
Payload
Rocket body
Debris
Shape & HBR
Unknown shape, 0.5 m
Radar Cross Section
Medium (>0.1 m² and <1 m²)

Expand to show TLE details & history
Last TLE update: 12 hours ago

TLE from 12 hours ago
0 DELTA 1 DEB
1 07057U 73086AZ  26033.51502353 -.00000040  00000-0  50577-4 0  9994
2 07057 102.4373  55.4027 0034471 202.8497 314.2820 12.33041490351304
Epoch: 2026-02-02T12:21Z
TLE epoch observation values (Epoch: 2026-02-02T12:21:38.032Z)
Latitude
22.59624°
Longitude
-77.47429°
Altitude
1,519.63 km
Speed
7.116 km/s
True Right ascension
16h 02m 34s
True Declination
22° 29' 11"
Sunlit
Object was in daylight at epoch
Visualization orbit readout
Latitude
Unknown
Longitude
Unknown
Altitude
Unknown
Speed
Unknown
Apparent Right ascension
Unknown
Apparent Declination
Unknown
Sunlit
N/A
Visualization observer readout
Local Sidereal Time
02:09:41
Azimuth
Unknown
Elevation
Unknown
Doppler factor
Unknown
Orbital elements
Apogee altitude
1,561.123 km
Perigee altitude
1,506.576 km
Semi-major axis
7,911.987 km
Eccentricity
0.00345
Inclination
102.4373°
RAAN
55.4027°
Arg. of periapsis
202.8497°
True anomaly
313.99836°
Mean anomaly
314.282°
Eccentric anomaly
314.14026°
Mean motion
3.084 °/min
Orbital period
116.73 mins
BSTAR
0.000050577
Loading maneuver chart data...
Computing Atmospheric mass density...
Loading historical data...
Loading historical data...
Loading historical data...
Loading historical data...
Loading historical data...
Loading historical data...
Loading historical data...

Documentation

Showing up to 5 results
|